Time,TemperatureF,DewpointF,PressureIn,WindDirection,WindDirectionDegrees,WindSpeedMPH,WindSpeedGustMPH,Humidity,HourlyPrecipIn,Conditions,Clouds,dailyrainin,SoftwareType,DateUTC
2013-12-10 00:00:00,30.7,29.4,30.41,NNE,27,3.0,6.0,95,0.00,,,0.12,WUHU216DAVISVP2,2013-12-10 06:00:00,
2013-12-10 00:05:00,30.7,29.2,30.41,NNW,333,3.0,6.0,94,0.00,,,0.00,WUHU216DAVISVP2,2013-12-10 06:05:00,
2013-12-10 00:10:00,30.7,29.2,30.41,West,269,2.0,6.0,94,0.00,,,0.00,WUHU216DAVISVP2,2013-12-10 06:10:00,
2013-12-10 00:15:00,30.8,29.2,30.41,WNW,284,2.0,6.0,94,0.00,,,0.00,WUHU216DAVISVP2,2013-12-10 06:15:00,
2013-12-10 00:20:00,30.9,29.3,30.41,WNW,294,1.0,5.0,94,0.00,,,0.00,WUHU216DAVISVP2,2013-12-10 06:20:00,
2013-12-10 00:25:00,30.9,29.1,30.41,WNW,301,4.0,6.0,93,0.00,,,0.00,WUHU216DAVISVP2,2013-12-10 06:25:00,
2013-12-10 00:30:00,30.9,29.1,30.41,NNW,330,1.0,7.0,93,0.00,,,0.00,WUHU216DAVISVP2,2013-12-10 06:30:00,
2013-12-10 00:35:00,30.9,29.1,30.42,WNW,285,0.0,7.0,93,0.00,,,0.00,WUHU216DAVISVP2,2013-12-10 06:35:00,
2013-12-10 00:40:00,31.0,29.2,30.42,WNW,300,3.0,7.0,93,0.00,,,0.00,WUHU216DAVISVP2,2013-12-10 06:40:00,
2013-12-10 00:45:00,30.8,28.7,30.42,WNW,283,2.0,5.0,92,0.00,,,0.00,WUHU216DAVISVP2,2013-12-10 06:45:00,
2013-12-10 00:50:00,30.7,28.6,30.42,WNW,282,3.0,7.0,92,0.00,,,0.00,WUHU216DAVISVP2,2013-12-10 06:50:00,
2013-12-10 00:55:00,30.5,28.1,30.42,West,278,2.0,7.0,91,0.00,,,0.00,WUHU216DAVISVP2,2013-12-10 06:55:00,
2013-12-10 01:00:00,30.4,28.0,30.42,NNE,13,2.0,7.0,91,0.00,,,0.00,WUHU216DAVISVP2,2013-12-10 07:00:00,
2013-12-10 01:05:00,30.3,27.7,30.42,NNW,335,2.0,8.0,90,0.00,,,0.00,WUHU216DAVISVP2,2013-12-10 07:05:00,
2013-12-10 01:10:00,30.2,27.6,30.42,WNW,299,6.0,8.0,90,0.00,,,0.00,WUHU216DAVISVP2,2013-12-10 07:10:00,
2013-12-10 01:15:00,30.1,27.5,30.42,North,356,7.0,8.0,90,0.00,,,0.00,WUHU216DAVISVP2,2013-12-10 07:15:00,
2013-12-10 01:20:00,30.1,27.5,30.43,WNW,298,2.0,8.0,90,0.00,,,0.00,WUHU216DAVISVP2,2013-12-10 07:20:00,
2013-12-10 01:25:00,29.8,27.2,30.43,WNW,293,3.0,10.0,90,0.00,,,0.00,WUHU216DAVISVP2,2013-12-10 07:25:00,
2013-12-10 01:30:00,29.6,27.0,30.43,NW,306,5.0,10.0,90,0.00,,,0.00,WUHU216DAVISVP2,2013-12-10 07:30:00,
2013-12-10 01:35:00,29.4,26.5,30.43,NW,314,1.0,10.0,89,0.00,,,0.00,WUHU216DAVISVP2,2013-12-10 07:35:00,
2013-12-10 01:41:00,29.4,26.8,30.43,West,268,1.0,10.0,90,0.00,,,0.00,WUHU216DAVISVP2,2013-12-10 07:41:00,
2013-12-10 01:46:00,29.3,26.7,30.43,WNW,295,4.0,8.0,90,0.00,,,0.00,WUHU216DAVISVP2,2013-12-10 07:46:00,
2013-12-10 01:51:00,29.1,26.5,30.43,West,274,4.0,8.0,90,0.00,,,0.00,WUHU216DAVISVP2,2013-12-10 07:51:00,
2013-12-10 01:56:00,29.0,26.4,30.43,West,274,3.0,8.0,90,0.00,,,0.00,WUHU216DAVISVP2,2013-12-10 07:56:00,
2013-12-10 02:01:00,28.8,26.2,30.43,North,360,10.0,10.0,90,0.00,,,0.00,WUHU216DAVISVP2,2013-12-10 08:01:00,
2013-12-10 02:06:00,28.6,25.7,30.43,WSW,248,5.0,10.0,89,0.00,,,0.00,WUHU216DAVISVP2,2013-12-10 08:06:00,
2013-12-10 02:11:00,28.3,25.5,30.44,NW,304,4.0,11.0,89,0.00,,,0.00,WUHU216DAVISVP2,2013-12-10 08:11:00,
2013-12-10 02:16:00,28.1,25.0,30.44,WSW,256,1.0,11.0,88,0.00,,,0.00,WUHU216DAVISVP2,2013-12-10 08:16:00,
2013-12-10 02:21:00,27.9,24.8,30.45,West,281,2.0,11.0,88,0.00,,,0.00,WUHU216DAVISVP2,2013-12-10 08:21:00,
2013-12-10 02:26:00,27.8,25.0,30.45,NNW,336,2.0,11.0,89,0.00,,,0.00,WUHU216DAVISVP2,2013-12-10 08:26:00,
2013-12-10 02:31:00,27.7,24.8,30.44,NE,40,4.0,9.0,89,0.00,,,0.00,WUHU216DAVISVP2,2013-12-10 08:31:00,
2013-12-10 02:36:00,27.3,23.4,30.44,NNW,343,4.0,14.0,85,0.00,,,0.00,WUHU216DAVISVP2,2013-12-10 08:36:00,
2013-12-10 02:41:00,27.0,23.3,30.45,NW,309,6.0,14.0,86,0.00,,,0.00,WUHU216DAVISVP2,2013-12-10 08:41:00,
2013-12-10 02:46:00,26.8,22.9,30.45,NNE,12,1.0,14.0,85,0.00,,,0.00,WUHU216DAVISVP2,2013-12-10 08:46:00,
2013-12-10 02:51:00,26.6,22.7,30.45,NW,311,2.0,14.0,85,0.00,,,0.00,WUHU216DAVISVP2,2013-12-10 08:51:00,
2013-12-10 02:56:00,26.5,22.6,30.46,WNW,301,4.0,7.0,85,0.00,,,0.00,WUHU216DAVISVP2,2013-12-10 08:56:00,
2013-12-10 03:11:00,26.2,22.0,30.46,NNW,333,1.0,8.0,84,0.00,,,0.00,WUHU216DAVISVP2,2013-12-10 09:11:00,
2013-12-10 03:20:00,25.9,21.7,30.47,West,281,2.0,8.0,84,0.00,,,0.00,WUHU216DAVISVP2,2013-12-10 09:20:00,
2013-12-10 03:25:00,25.8,21.6,30.47,NW,314,0.0,8.0,84,0.00,,,0.00,WUHU216DAVISVP2,2013-12-10 09:25:00,
2013-12-10 03:30:00,25.7,21.8,30.47,WNW,283,1.0,8.0,85,0.00,,,0.00,WUHU216DAVISVP2,2013-12-10 09:30:00,
2013-12-10 03:35:00,25.7,21.8,30.47,WNW,288,3.0,8.0,85,0.00,,,0.00,WUHU216DAVISVP2,2013-12-10 09:35:00,
2013-12-10 03:40:00,25.5,21.6,30.48,WSW,255,0.0,7.0,85,0.00,,,0.00,WUHU216DAVISVP2,2013-12-10 09:40:00,
2013-12-10 03:45:00,25.4,21.5,30.48,NNW,340,4.0,7.0,85,0.00,,,0.00,WUHU216DAVISVP2,2013-12-10 09:45:00,
2013-12-10 03:51:00,25.2,21.3,30.48,West,280,2.0,7.0,85,0.00,,,0.00,WUHU216DAVISVP2,2013-12-10 09:51:00,
2013-12-10 03:56:00,25.1,21.5,30.47,WNW,293,0.0,7.0,86,0.00,,,0.00,WUHU216DAVISVP2,2013-12-10 09:56:00,
2013-12-10 04:01:00,25.0,21.4,30.47,WNW,283,3.0,7.0,86,0.00,,,0.00,WUHU216DAVISVP2,2013-12-10 10:01:00,
2013-12-10 04:06:00,24.8,20.9,30.47,NW,309,0.0,7.0,85,0.00,,,0.00,WUHU216DAVISVP2,2013-12-10 10:06:00,
2013-12-10 04:11:00,24.8,21.2,30.47,WNW,300,0.0,5.0,86,0.00,,,0.00,WUHU216DAVISVP2,2013-12-10 10:11:00,
2013-12-10 04:16:00,24.7,21.1,30.48,WSW,252,2.0,9.0,86,0.00,,,0.00,WUHU216DAVISVP2,2013-12-10 10:16:00,
2013-12-10 04:21:00,24.6,21.0,30.48,NNW,332,3.0,9.0,86,0.00,,,0.00,WUHU216DAVISVP2,2013-12-10 10:21:00,
2013-12-10 04:26:00,24.4,20.8,30.48,NW,309,1.0,8.0,86,0.00,,,0.00,WUHU216DAVISVP2,2013-12-10 10:26:00,
2013-12-10 04:31:00,24.4,21.0,30.47,NW,306,0.0,8.0,87,0.00,,,0.00,WUHU216DAVISVP2,2013-12-10 10:31:00,
2013-12-10 04:36:00,24.4,21.0,30.48,NNW,330,0.0,5.0,87,0.00,,,0.00,WUHU216DAVISVP2,2013-12-10 10:36:00,
2013-12-10 04:41:00,24.2,20.6,30.48,NNW,343,3.0,5.0,86,0.00,,,0.00,WUHU216DAVISVP2,2013-12-10 10:41:00,
2013-12-10 04:46:00,24.0,20.7,30.48,WNW,295,2.0,5.0,87,0.00,,,0.00,WUHU216DAVISVP2,2013-12-10 10:46:00,
2013-12-10 04:51:00,23.9,20.3,30.47,NW,315,1.0,7.0,86,0.00,,,0.00,WUHU216DAVISVP2,2013-12-10 10:51:00,
2013-12-10 04:56:00,23.8,20.5,30.47,WNW,299,1.0,7.0,87,0.00,,,0.00,WUHU216DAVISVP2,2013-12-10 10:56:00,
2013-12-10 05:01:00,23.8,20.5,30.48,West,267,1.0,7.0,87,0.00,,,0.00,WUHU216DAVISVP2,2013-12-10 11:01:00,
2013-12-10 05:06:00,23.8,20.5,30.48,North,349,3.0,7.0,87,0.00,,,0.00,WUHU216DAVISVP2,2013-12-10 11:06:00,
2013-12-10 05:11:00,23.6,20.3,30.47,WNW,287,1.0,7.0,87,0.00,,,0.00,WUHU216DAVISVP2,2013-12-10 11:11:00,
2013-12-10 05:16:00,23.6,20.3,30.47,NW,306,2.0,6.0,87,0.00,,,0.00,WUHU216DAVISVP2,2013-12-10 11:16:00,
2013-12-10 05:21:00,23.5,20.2,30.47,West,266,0.0,5.0,87,0.00,,,0.00,WUHU216DAVISVP2,2013-12-10 11:21:00,
2013-12-10 05:26:00,23.5,20.5,30.47,NW,319,2.0,5.0,88,0.00,,,0.00,WUHU216DAVISVP2,2013-12-10 11:26:00,
2013-12-10 05:31:00,23.4,20.1,30.47,West,278,1.0,4.0,87,0.00,,,0.00,WUHU216DAVISVP2,2013-12-10 11:31:00,
2013-12-10 05:36:00,23.3,20.0,30.48,NNW,330,2.0,4.0,87,0.00,,,0.00,WUHU216DAVISVP2,2013-12-10 11:36:00,
2013-12-10 05:41:00,23.1,19.8,30.48,North,358,0.0,4.0,87,0.00,,,0.00,WUHU216DAVISVP2,2013-12-10 11:41:00,
2013-12-10 05:46:00,23.1,20.0,30.48,NNE,13,0.0,4.0,88,0.00,,,0.00,WUHU216DAVISVP2,2013-12-10 11:46:00,
2013-12-10 05:51:00,23.0,19.9,30.48,NW,317,0.0,4.0,88,0.00,,,0.00,WUHU216DAVISVP2,2013-12-10 11:51:00,
2013-12-10 05:56:00,22.8,19.7,30.48,NE,37,1.0,4.0,88,0.00,,,0.00,WUHU216DAVISVP2,2013-12-10 11:56:00,
2013-12-10 06:01:00,22.7,19.6,30.48,NW,315,0.0,4.0,88,0.00,,,0.00,WUHU216DAVISVP2,2013-12-10 12:01:00,
2013-12-10 06:06:00,22.7,19.6,30.48,WNW,297,0.0,4.0,88,0.00,,,0.00,WUHU216DAVISVP2,2013-12-10 12:06:00,
2013-12-10 06:11:00,22.5,19.4,30.48,WNW,293,1.0,4.0,88,0.00,,,0.00,WUHU216DAVISVP2,2013-12-10 12:11:00,
2013-12-10 06:16:00,22.5,19.7,30.48,NW,317,0.0,4.0,89,0.00,,,0.00,WUHU216DAVISVP2,2013-12-10 12:16:00,
2013-12-10 06:21:00,22.4,19.6,30.48,West,260,1.0,4.0,89,0.00,,,0.00,WUHU216DAVISVP2,2013-12-10 12:21:00,
2013-12-10 06:26:00,22.3,19.5,30.47,West,276,0.0,2.0,89,0.00,,,0.00,WUHU216DAVISVP2,2013-12-10 12:26:00,
2013-12-10 06:31:00,22.2,19.7,30.48,NW,325,0.0,2.0,90,0.00,,,0.00,WUHU216DAVISVP2,2013-12-10 12:31:00,
2013-12-10 06:36:00,22.2,19.7,30.48,NW,326,0.0,2.0,90,0.00,,,0.00,WUHU216DAVISVP2,2013-12-10 12:36:00,
2013-12-10 06:41:00,22.2,19.7,30.48,WNW,300,0.0,2.0,90,0.00,,,0.00,WUHU216DAVISVP2,2013-12-10 12:41:00,
2013-12-10 06:46:00,22.1,19.6,30.49,WNW,295,0.0,1.0,90,0.00,,,0.00,WUHU216DAVISVP2,2013-12-10 12:46:00,
2013-12-10 06:51:00,22.0,19.5,30.49,WNW,300,0.0,1.0,90,0.00,,,0.00,WUHU216DAVISVP2,2013-12-10 12:51:00,
2013-12-10 06:56:00,21.9,19.6,30.49,NW,314,0.0,1.0,91,0.00,,,0.00,WUHU216DAVISVP2,2013-12-10 12:56:00,
2013-12-10 07:01:00,21.7,19.4,30.49,West,273,0.0,1.0,91,0.00,,,0.00,WUHU216DAVISVP2,2013-12-10 13:01:00,
2013-12-10 07:06:00,21.6,19.3,30.50,WNW,291,0.0,1.0,91,0.00,,,0.00,WUHU216DAVISVP2,2013-12-10 13:06:00,
2013-12-10 07:11:00,21.6,19.3,30.50,WSW,257,1.0,1.0,91,0.00,,,0.00,WUHU216DAVISVP2,2013-12-10 13:11:00,
2013-12-10 07:16:00,21.5,19.2,30.50,WNW,299,0.0,2.0,91,0.00,,,0.00,WUHU216DAVISVP2,2013-12-10 13:16:00,
2013-12-10 07:21:00,21.4,19.1,30.50,West,271,0.0,2.0,91,0.00,,,0.00,WUHU216DAVISVP2,2013-12-10 13:21:00,
2013-12-10 07:26:00,21.5,19.2,30.50,West,269,0.0,2.0,91,0.00,,,0.00,WUHU216DAVISVP2,2013-12-10 13:26:00,
2013-12-10 07:31:00,21.5,19.2,30.50,NW,315,0.0,2.0,91,0.00,,,0.00,WUHU216DAVISVP2,2013-12-10 13:31:00,
2013-12-10 07:36:00,21.5,19.2,30.51,NW,305,1.0,2.0,91,0.00,,,0.00,WUHU216DAVISVP2,2013-12-10 13:36:00,
2013-12-10 07:41:00,21.5,19.2,30.51,West,281,2.0,2.0,91,0.00,,,0.00,WUHU216DAVISVP2,2013-12-10 13:41:00,
2013-12-10 07:46:00,21.5,19.2,30.51,WNW,293,2.0,3.0,91,0.00,,,0.00,WUHU216DAVISVP2,2013-12-10 13:46:00,
2013-12-10 07:51:00,21.6,19.3,30.51,WNW,295,1.0,3.0,91,0.00,,,0.00,WUHU216DAVISVP2,2013-12-10 13:51:00,
2013-12-10 07:56:00,21.8,19.6,30.52,NW,304,2.0,4.0,91,0.00,,,0.00,WUHU216DAVISVP2,2013-12-10 13:56:00,
2013-12-10 08:01:00,21.9,19.4,30.52,NW,321,3.0,6.0,90,0.00,,,0.00,WUHU216DAVISVP2,2013-12-10 14:01:00,
2013-12-10 08:06:00,22.1,19.9,30.52,NNW,333,5.0,6.0,91,0.00,,,0.00,WUHU216DAVISVP2,2013-12-10 14:06:00,
2013-12-10 08:11:00,22.2,19.4,30.52,NW,321,1.0,7.0,89,0.00,,,0.00,WUHU216DAVISVP2,2013-12-10 14:11:00,
2013-12-10 08:16:00,22.5,20.0,30.52,North,351,1.0,7.0,90,0.00,,,0.00,WUHU216DAVISVP2,2013-12-10 14:16:00,
2013-12-10 08:21:00,22.6,19.5,30.53,North,352,2.0,6.0,88,0.00,,,0.00,WUHU216DAVISVP2,2013-12-10 14:21:00,
2013-12-10 08:26:00,22.9,20.1,30.53,WNW,301,2.0,6.0,89,0.00,,,0.00,WUHU216DAVISVP2,2013-12-10 14:26:00,
2013-12-10 08:31:00,23.1,20.3,30.53,NW,323,5.0,7.0,89,0.00,,,0.00,WUHU216DAVISVP2,2013-12-10 14:31:00,
2013-12-10 08:36:00,23.2,20.1,30.53,NW,325,5.0,8.0,88,0.00,,,0.00,WUHU216DAVISVP2,2013-12-10 14:36:00,
2013-12-10 08:41:00,23.4,20.3,30.53,North,349,4.0,8.0,88,0.00,,,0.00,WUHU216DAVISVP2,2013-12-10 14:41:00,
2013-12-10 08:46:00,23.5,20.2,30.53,West,274,1.0,8.0,87,0.00,,,0.00,WUHU216DAVISVP2,2013-12-10 14:46:00,
2013-12-10 08:51:00,23.6,20.3,30.53,NW,318,0.0,6.0,87,0.00,,,0.00,WUHU216DAVISVP2,2013-12-10 14:51:00,
2013-12-10 08:56:00,24.0,20.7,30.53,NE,34,7.0,7.0,87,0.00,,,0.00,WUHU216DAVISVP2,2013-12-10 14:56:00,
2013-12-10 09:01:00,24.3,20.7,30.54,NW,308,0.0,7.0,86,0.00,,,0.00,WUHU216DAVISVP2,2013-12-10 15:01:00,
2013-12-10 09:06:00,24.5,20.9,30.54,NW,312,1.0,7.0,86,0.00,,,0.00,WUHU216DAVISVP2,2013-12-10 15:06:00,
2013-12-10 09:11:00,24.7,21.1,30.55,WSW,250,4.0,7.0,86,0.00,,,0.00,WUHU216DAVISVP2,2013-12-10 15:11:00,
2013-12-10 09:16:00,24.9,21.0,30.55,NNE,25,2.0,6.0,85,0.00,,,0.00,WUHU216DAVISVP2,2013-12-10 15:16:00,
2013-12-10 09:21:00,25.0,21.1,30.55,NW,304,4.0,6.0,85,0.00,,,0.00,WUHU216DAVISVP2,2013-12-10 15:21:00,
2013-12-10 09:26:00,25.2,21.3,30.56,NNE,30,4.0,6.0,85,0.00,,,0.00,WUHU216DAVISVP2,2013-12-10 15:26:00,
2013-12-10 09:31:00,25.3,21.4,30.56,West,278,1.0,6.0,85,0.00,,,0.00,WUHU216DAVISVP2,2013-12-10 15:31:00,
2013-12-10 09:36:00,25.4,21.2,30.56,NW,308,1.0,6.0,84,0.00,,,0.00,WUHU216DAVISVP2,2013-12-10 15:36:00,
2013-12-10 09:41:00,25.5,21.3,30.56,WNW,296,3.0,5.0,84,0.00,,,0.00,WUHU216DAVISVP2,2013-12-10 15:41:00,
2013-12-10 09:46:00,25.7,21.2,30.57,North,1,5.0,5.0,83,0.00,,,0.00,WUHU216DAVISVP2,2013-12-10 15:46:00,
2013-12-10 09:51:00,26.0,21.5,30.57,NNE,27,3.0,6.0,83,0.00,,,0.00,WUHU216DAVISVP2,2013-12-10 15:51:00,
2013-12-10 09:56:00,26.1,21.6,30.57,ENE,68,0.0,6.0,83,0.00,,,0.00,WUHU216DAVISVP2,2013-12-10 15:56:00,
2013-12-10 10:01:00,26.2,21.7,30.56,NW,317,0.0,6.0,83,0.00,,,0.00,WUHU216DAVISVP2,2013-12-10 16:01:00,
2013-12-10 10:06:00,26.4,21.9,30.57,WSW,248,2.0,5.0,83,0.00,,,0.00,WUHU216DAVISVP2,2013-12-10 16:06:00,
2013-12-10 10:11:00,26.6,22.1,30.57,North,358,4.0,5.0,83,0.00,,,0.00,WUHU216DAVISVP2,2013-12-10 16:11:00,
2013-12-10 10:16:00,26.9,22.1,30.57,ENE,71,0.0,6.0,82,0.00,,,0.00,WUHU216DAVISVP2,2013-12-10 16:16:00,
2013-12-10 10:21:00,27.0,22.2,30.57,WNW,290,2.0,6.0,82,0.00,,,0.00,WUHU216DAVISVP2,2013-12-10 16:21:00,
2013-12-10 10:26:00,27.3,22.5,30.57,NNW,328,0.0,5.0,82,0.00,,,0.00,WUHU216DAVISVP2,2013-12-10 16:26:00,
2013-12-10 10:31:00,27.5,23.0,30.57,ENE,68,2.0,5.0,83,0.00,,,0.00,WUHU216DAVISVP2,2013-12-10 16:31:00,
2013-12-10 10:36:00,27.7,22.6,30.56,ESE,107,0.0,4.0,81,0.00,,,0.00,WUHU216DAVISVP2,2013-12-10 16:36:00,
2013-12-10 10:41:00,28.1,23.3,30.56,WNW,283,1.0,3.0,82,0.00,,,0.00,WUHU216DAVISVP2,2013-12-10 16:41:00,
2013-12-10 10:46:00,28.5,23.7,30.56,ENE,61,4.0,7.0,82,0.00,,,0.00,WUHU216DAVISVP2,2013-12-10 16:46:00,
2013-12-10 10:51:00,28.7,23.3,30.56,WNW,298,2.0,7.0,80,0.00,,,0.00,WUHU216DAVISVP2,2013-12-10 16:51:00,
2013-12-10 10:56:00,28.9,23.2,30.56,East,101,0.0,7.0,79,0.00,,,0.00,WUHU216DAVISVP2,2013-12-10 16:56:00,
2013-12-10 11:01:00,29.3,23.9,30.56,NNE,30,1.0,7.0,80,0.00,,,0.00,WUHU216DAVISVP2,2013-12-10 17:01:00,
2013-12-10 11:06:00,29.5,23.5,30.56,East,83,1.0,6.0,78,0.00,,,0.00,WUHU216DAVISVP2,2013-12-10 17:06:00,
2013-12-10 11:11:00,29.7,23.7,30.56,ENE,72,0.0,6.0,78,0.00,,,0.00,WUHU216DAVISVP2,2013-12-10 17:11:00,
2013-12-10 11:16:00,30.0,23.7,30.56,ESE,109,0.0,5.0,77,0.00,,,0.00,WUHU216DAVISVP2,2013-12-10 17:16:00,
2013-12-10 11:21:00,30.3,23.7,30.55,NNW,339,4.0,5.0,76,0.00,,,0.00,WUHU216DAVISVP2,2013-12-10 17:21:00,
2013-12-10 11:26:00,30.4,23.8,30.55,NNW,335,0.0,5.0,76,0.00,,,0.00,WUHU216DAVISVP2,2013-12-10 17:26:00,
2013-12-10 11:31:00,30.8,24.5,30.55,ESE,110,0.0,5.0,77,0.00,,,0.00,WUHU216DAVISVP2,2013-12-10 17:31:00,
2013-12-10 11:36:00,31.2,24.5,30.54,WNW,292,2.0,5.0,76,0.00,,,0.00,WUHU216DAVISVP2,2013-12-10 17:36:00,
2013-12-10 11:41:00,31.4,24.1,30.54,East,86,0.0,6.0,74,0.00,,,0.00,WUHU216DAVISVP2,2013-12-10 17:41:00,
2013-12-10 11:46:00,31.7,24.4,30.53,East,79,3.0,6.0,74,0.00,,,0.00,WUHU216DAVISVP2,2013-12-10 17:46:00,
2013-12-10 11:51:00,32.0,25.0,30.53,SE,129,0.0,6.0,75,0.00,,,0.00,WUHU216DAVISVP2,2013-12-10 17:51:00,
2013-12-10 11:56:00,32.5,25.5,30.52,ESE,106,1.0,5.0,75,0.00,,,0.00,WUHU216DAVISVP2,2013-12-10 17:56:00,
2013-12-10 12:01:00,32.7,25.4,30.52,ENE,71,2.0,5.0,74,0.00,,,0.00,WUHU216DAVISVP2,2013-12-10 18:01:00,
2013-12-10 12:06:00,32.7,25.1,30.52,East,96,1.0,6.0,73,0.00,,,0.00,WUHU216DAVISVP2,2013-12-10 18:06:00,
2013-12-10 12:11:00,32.9,25.2,30.51,WNW,302,4.0,6.0,73,0.00,,,0.00,WUHU216DAVISVP2,2013-12-10 18:11:00,
2013-12-10 12:16:00,33.4,25.4,30.51,East,101,3.0,5.0,72,0.00,,,0.00,WUHU216DAVISVP2,2013-12-10 18:16:00,
2013-12-10 12:21:00,33.6,25.6,30.51,East,85,0.0,5.0,72,0.00,,,0.00,WUHU216DAVISVP2,2013-12-10 18:21:00,
2013-12-10 12:26:00,33.9,25.9,30.50,West,281,1.0,5.0,72,0.00,,,0.00,WUHU216DAVISVP2,2013-12-10 18:26:00,
2013-12-10 12:31:00,34.1,25.4,30.50,ENE,58,0.0,5.0,70,0.00,,,0.00,WUHU216DAVISVP2,2013-12-10 18:31:00,
2013-12-10 12:36:00,34.3,25.6,30.50,NW,324,0.0,5.0,70,0.00,,,0.00,WUHU216DAVISVP2,2013-12-10 18:36:00,
2013-12-10 12:41:00,34.6,25.5,30.49,SW,231,2.0,6.0,69,0.00,,,0.00,WUHU216DAVISVP2,2013-12-10 18:41:00,
2013-12-10 12:46:00,35.0,25.6,30.49,NNE,26,6.0,6.0,68,0.00,,,0.00,WUHU216DAVISVP2,2013-12-10 18:46:00,
2013-12-10 12:51:00,35.3,25.4,30.49,NNW,344,2.0,6.0,67,0.00,,,0.00,WUHU216DAVISVP2,2013-12-10 18:51:00,
2013-12-10 12:56:00,35.5,26.1,30.48,SW,221,1.0,7.0,68,0.00,,,0.00,WUHU216DAVISVP2,2013-12-10 18:56:00,
2013-12-10 13:01:00,35.6,26.1,30.48,East,84,0.0,7.0,68,0.00,,,0.00,WUHU216DAVISVP2,2013-12-10 19:01:00,
2013-12-10 13:06:00,35.8,26.3,30.47,East,98,0.0,6.0,68,0.00,,,0.00,WUHU216DAVISVP2,2013-12-10 19:06:00,
2013-12-10 13:11:00,36.1,26.2,30.47,East,86,0.0,6.0,67,0.00,,,0.00,WUHU216DAVISVP2,2013-12-10 19:11:00,
2013-12-10 13:16:00,36.2,26.3,30.46,ENE,67,1.0,6.0,67,0.00,,,0.00,WUHU216DAVISVP2,2013-12-10 19:16:00,
2013-12-10 13:21:00,36.3,26.4,30.46,WSW,252,2.0,6.0,67,0.00,,,0.00,WUHU216DAVISVP2,2013-12-10 19:21:00,
2013-12-10 13:26:00,36.4,26.5,30.46,ENE,69,4.0,5.0,67,0.00,,,0.00,WUHU216DAVISVP2,2013-12-10 19:26:00,
2013-12-10 13:31:00,36.7,26.8,30.45,East,101,0.0,5.0,67,0.00,,,0.00,WUHU216DAVISVP2,2013-12-10 19:31:00,
2013-12-10 13:36:00,36.8,26.9,30.45,ENE,60,1.0,5.0,67,0.00,,,0.00,WUHU216DAVISVP2,2013-12-10 19:36:00,
2013-12-10 13:41:00,37.0,26.7,30.45,NE,44,2.0,5.0,66,0.00,,,0.00,WUHU216DAVISVP2,2013-12-10 19:41:00,
2013-12-10 13:46:00,37.3,26.6,30.45,NNE,32,1.0,4.0,65,0.00,,,0.00,WUHU216DAVISVP2,2013-12-10 19:46:00,
2013-12-10 13:52:00,37.6,26.9,30.45,SW,222,0.0,4.0,65,0.00,,,0.00,WUHU216DAVISVP2,2013-12-10 19:52:00,
2013-12-10 13:57:00,38.1,27.0,30.44,SW,236,0.0,4.0,64,0.00,,,0.00,WUHU216DAVISVP2,2013-12-10 19:57:00,
2013-12-10 14:02:00,38.4,27.3,30.44,ENE,67,0.0,4.0,64,0.00,,,0.00,WUHU216DAVISVP2,2013-12-10 20:02:00,
2013-12-10 14:07:00,38.7,27.9,30.44,East,88,2.0,4.0,65,0.00,,,0.00,WUHU216DAVISVP2,2013-12-10 20:07:00,
2013-12-10 14:12:00,38.8,27.3,30.44,ESE,105,0.0,4.0,63,0.00,,,0.00,WUHU216DAVISVP2,2013-12-10 20:12:00,
2013-12-10 14:17:00,38.9,27.8,30.43,East,101,1.0,6.0,64,0.00,,,0.00,WUHU216DAVISVP2,2013-12-10 20:17:00,
2013-12-10 14:22:00,39.0,27.5,30.43,NE,45,1.0,6.0,63,0.00,,,0.00,WUHU216DAVISVP2,2013-12-10 20:22:00,
2013-12-10 14:27:00,39.0,27.1,30.44,SW,226,0.0,5.0,62,0.00,,,0.00,WUHU216DAVISVP2,2013-12-10 20:27:00,
2013-12-10 14:32:00,39.4,27.5,30.44,SE,140,0.0,5.0,62,0.00,,,0.00,WUHU216DAVISVP2,2013-12-10 20:32:00,
2013-12-10 14:37:00,40.1,28.2,30.44,SE,128,2.0,4.0,62,0.00,,,0.00,WUHU216DAVISVP2,2013-12-10 20:37:00,
2013-12-10 14:42:00,40.2,28.2,30.44,South,179,0.0,3.0,62,0.00,,,0.00,WUHU216DAVISVP2,2013-12-10 20:42:00,
2013-12-10 14:47:00,40.7,27.9,30.44,East,83,0.0,3.0,60,0.00,,,0.00,WUHU216DAVISVP2,2013-12-10 20:47:00,
2013-12-10 14:52:00,40.5,28.5,30.43,East,82,0.0,3.0,62,0.00,,,0.00,WUHU216DAVISVP2,2013-12-10 20:52:00,
2013-12-10 14:57:00,40.4,28.4,30.43,East,91,0.0,2.0,62,0.00,,,0.00,WUHU216DAVISVP2,2013-12-10 20:57:00,
2013-12-10 15:02:00,40.3,27.9,30.43,NE,54,0.0,2.0,61,0.00,,,0.00,WUHU216DAVISVP2,2013-12-10 21:02:00,
2013-12-10 15:07:00,40.3,28.3,30.43,NE,51,0.0,1.0,62,0.00,,,0.00,WUHU216DAVISVP2,2013-12-10 21:07:00,
2013-12-10 15:12:00,40.4,28.4,30.43,East,93,1.0,1.0,62,0.00,,,0.00,WUHU216DAVISVP2,2013-12-10 21:12:00,
2013-12-10 15:17:00,40.5,27.7,30.43,East,85,0.0,2.0,60,0.00,,,0.00,WUHU216DAVISVP2,2013-12-10 21:17:00,
2013-12-10 15:22:00,40.6,28.2,30.43,East,82,0.0,2.0,61,0.00,,,0.00,WUHU216DAVISVP2,2013-12-10 21:22:00,
2013-12-10 15:27:00,40.6,27.8,30.43,ENE,71,1.0,2.0,60,0.00,,,0.00,WUHU216DAVISVP2,2013-12-10 21:27:00,
2013-12-10 15:32:00,40.7,28.3,30.43,East,91,2.0,2.0,61,0.00,,,0.00,WUHU216DAVISVP2,2013-12-10 21:32:00,
2013-12-10 15:37:00,40.6,28.2,30.43,ENE,72,2.0,5.0,61,0.00,,,0.00,WUHU216DAVISVP2,2013-12-10 21:37:00,
2013-12-10 15:42:00,40.4,28.0,30.43,NE,43,0.0,5.0,61,0.00,,,0.00,WUHU216DAVISVP2,2013-12-10 21:42:00,
2013-12-10 15:47:00,40.4,28.0,30.43,NE,43,0.0,5.0,61,0.00,,,0.00,WUHU216DAVISVP2,2013-12-10 21:47:00,
2013-12-10 15:52:00,40.4,28.0,30.43,NNE,28,0.0,5.0,61,0.00,,,0.00,WUHU216DAVISVP2,2013-12-10 21:52:00,
2013-12-10 15:57:00,40.6,28.7,30.42,SW,216,0.0,2.0,62,0.00,,,0.00,WUHU216DAVISVP2,2013-12-10 21:57:00,
2013-12-10 16:02:00,40.7,28.4,30.42,WSW,245,0.0,1.0,61,0.00,,,0.00,WUHU216DAVISVP2,2013-12-10 22:02:00,
2013-12-10 16:07:00,40.7,29.2,30.43,SW,224,0.0,1.0,63,0.00,,,0.00,WUHU216DAVISVP2,2013-12-10 22:07:00,
2013-12-10 16:12:00,40.5,28.2,30.43,SW,215,0.0,1.0,61,0.00,,,0.00,WUHU216DAVISVP2,2013-12-10 22:12:00,
2013-12-10 16:17:00,40.4,28.9,30.43,SW,215,0.0,1.0,63,0.00,,,0.00,WUHU216DAVISVP2,2013-12-10 22:17:00,
2013-12-10 16:22:00,40.3,28.8,30.43,SW,215,0.0,1.0,63,0.00,,,0.00,WUHU216DAVISVP2,2013-12-10 22:22:00,
2013-12-10 16:27:00,40.3,28.8,30.43,SW,215,0.0,0.0,63,0.00,,,0.00,WUHU216DAVISVP2,2013-12-10 22:27:00,
2013-12-10 16:32:00,40.1,28.6,30.42,SW,224,0.0,0.0,63,0.00,,,0.00,WUHU216DAVISVP2,2013-12-10 22:32:00,
2013-12-10 16:37:00,40.4,28.9,30.42,WSW,243,0.0,1.0,63,0.00,,,0.00,WUHU216DAVISVP2,2013-12-10 22:37:00,
2013-12-10 16:42:00,40.3,28.8,30.42,SW,225,0.0,1.0,63,0.00,,,0.00,WUHU216DAVISVP2,2013-12-10 22:42:00,
2013-12-10 16:47:00,39.9,28.8,30.42,SW,231,0.0,1.0,64,0.00,,,0.00,WUHU216DAVISVP2,2013-12-10 22:47:00,
2013-12-10 16:52:00,39.4,29.1,30.42,SW,231,0.0,1.0,66,0.00,,,0.00,WUHU216DAVISVP2,2013-12-10 22:52:00,
2013-12-10 16:57:00,38.8,28.9,30.42,SW,231,0.0,1.0,67,0.00,,,0.00,WUHU216DAVISVP2,2013-12-10 22:57:00,
2013-12-10 17:02:00,38.1,29.9,30.42,WSW,239,0.0,1.0,72,0.00,,,0.00,WUHU216DAVISVP2,2013-12-10 23:02:00,
2013-12-10 17:07:00,37.4,29.3,30.43,WSW,239,0.0,0.0,72,0.00,,,0.00,WUHU216DAVISVP2,2013-12-10 23:07:00,
2013-12-10 17:12:00,36.7,28.9,30.42,WSW,239,0.0,0.0,73,0.00,,,0.00,WUHU216DAVISVP2,2013-12-10 23:12:00,
2013-12-10 17:17:00,36.2,29.1,30.42,WSW,239,0.0,0.0,75,0.00,,,0.00,WUHU216DAVISVP2,2013-12-10 23:17:00,
2013-12-10 17:22:00,35.6,29.4,30.42,WSW,239,0.0,0.0,78,0.00,,,0.00,WUHU216DAVISVP2,2013-12-10 23:22:00,
2013-12-10 17:27:00,35.1,29.6,30.42,WSW,239,0.0,0.0,80,0.00,,,0.00,WUHU216DAVISVP2,2013-12-10 23:27:00,
2013-12-10 17:32:00,34.6,30.0,30.42,WSW,239,0.0,0.0,83,0.00,,,0.00,WUHU216DAVISVP2,2013-12-10 23:32:00,
2013-12-10 17:37:00,34.0,29.4,30.42,WSW,239,0.0,0.0,83,0.00,,,0.00,WUHU216DAVISVP2,2013-12-10 23:37:00,
2013-12-10 17:42:00,33.5,29.2,30.42,WSW,239,0.0,0.0,84,0.00,,,0.00,WUHU216DAVISVP2,2013-12-10 23:42:00,
2013-12-10 17:47:00,33.1,28.8,30.42,WSW,239,0.0,0.0,84,0.00,,,0.00,WUHU216DAVISVP2,2013-12-10 23:47:00,
2013-12-10 17:52:00,32.8,28.8,30.42,West,277,0.0,0.0,85,0.00,,,0.00,WUHU216DAVISVP2,2013-12-10 23:52:00,
2013-12-10 17:57:00,32.4,28.6,30.42,West,278,0.0,0.0,86,0.00,,,0.00,WUHU216DAVISVP2,2013-12-10 23:57:00,
2013-12-10 18:02:00,32.1,28.4,30.42,West,278,0.0,1.0,86,0.00,,,0.00,WUHU216DAVISVP2,2013-12-11 00:02:00,
2013-12-10 18:07:00,31.8,28.3,30.43,West,278,0.0,1.0,87,0.00,,,0.00,WUHU216DAVISVP2,2013-12-11 00:07:00,
2013-12-10 18:12:00,31.5,27.8,30.42,West,278,0.0,1.0,86,0.00,,,0.00,WUHU216DAVISVP2,2013-12-11 00:12:00,
2013-12-10 18:17:00,31.4,27.7,30.42,West,278,0.0,1.0,86,0.00,,,0.00,WUHU216DAVISVP2,2013-12-11 00:17:00,
2013-12-10 18:22:00,31.3,27.8,30.42,West,278,0.0,0.0,87,0.00,,,0.00,WUHU216DAVISVP2,2013-12-11 00:22:00,
2013-12-10 18:27:00,31.2,27.7,30.42,West,278,0.0,0.0,87,0.00,,,0.00,WUHU216DAVISVP2,2013-12-11 00:27:00,
2013-12-10 18:32:00,31.0,27.5,30.42,West,278,0.0,0.0,87,0.00,,,0.00,WUHU216DAVISVP2,2013-12-11 00:32:00,
2013-12-10 18:37:00,30.8,27.6,30.42,West,278,0.0,0.0,88,0.00,,,0.00,WUHU216DAVISVP2,2013-12-11 00:37:00,
2013-12-10 18:42:00,30.6,27.4,30.42,West,278,0.0,0.0,88,0.00,,,0.00,WUHU216DAVISVP2,2013-12-11 00:42:00,
2013-12-10 18:47:00,30.4,27.2,30.42,West,278,0.0,0.0,88,0.00,,,0.00,WUHU216DAVISVP2,2013-12-11 00:47:00,
2013-12-10 18:52:00,30.1,26.9,30.43,West,278,0.0,0.0,88,0.00,,,0.00,WUHU216DAVISVP2,2013-12-11 00:52:00,
2013-12-10 18:57:00,30.0,27.2,30.43,West,278,0.0,0.0,89,0.00,,,0.00,WUHU216DAVISVP2,2013-12-11 00:57:00,
2013-12-10 19:02:00,29.9,27.3,30.43,West,278,0.0,0.0,90,0.00,,,0.00,WUHU216DAVISVP2,2013-12-11 01:02:00,
2013-12-10 19:07:00,29.7,26.9,30.43,West,278,0.0,0.0,89,0.00,,,0.00,WUHU216DAVISVP2,2013-12-11 01:07:00,
2013-12-10 19:12:00,29.5,26.9,30.43,West,278,0.0,0.0,90,0.00,,,0.00,WUHU216DAVISVP2,2013-12-11 01:12:00,
2013-12-10 19:17:00,29.4,26.8,30.43,West,278,0.0,0.0,90,0.00,,,0.00,WUHU216DAVISVP2,2013-12-11 01:17:00,
2013-12-10 19:22:00,29.4,26.8,30.43,West,278,0.0,0.0,90,0.00,,,0.00,WUHU216DAVISVP2,2013-12-11 01:22:00,
2013-12-10 19:27:00,29.4,26.8,30.43,West,278,0.0,0.0,90,0.00,,,0.00,WUHU216DAVISVP2,2013-12-11 01:27:00,
2013-12-10 19:32:00,29.3,27.0,30.43,West,278,0.0,0.0,91,0.00,,,0.00,WUHU216DAVISVP2,2013-12-11 01:32:00,
2013-12-10 19:37:00,29.3,27.0,30.43,West,278,0.0,0.0,91,0.00,,,0.00,WUHU216DAVISVP2,2013-12-11 01:37:00,
2013-12-10 19:42:00,29.3,27.0,30.43,West,278,0.0,0.0,91,0.00,,,0.00,WUHU216DAVISVP2,2013-12-11 01:42:00,
2013-12-10 19:47:00,29.2,27.1,30.43,West,278,0.0,0.0,92,0.00,,,0.00,WUHU216DAVISVP2,2013-12-11 01:47:00,
2013-12-10 19:52:00,29.1,27.0,30.43,West,278,0.0,0.0,92,0.00,,,0.00,WUHU216DAVISVP2,2013-12-11 01:52:00,
2013-12-10 19:57:00,28.9,26.8,30.43,West,278,0.0,0.0,92,0.00,,,0.00,WUHU216DAVISVP2,2013-12-11 01:57:00,
2013-12-10 20:02:00,28.7,26.6,30.44,West,278,0.0,1.0,92,0.00,,,0.00,WUHU216DAVISVP2,2013-12-11 02:02:00,
2013-12-10 20:07:00,28.4,26.3,30.44,West,278,0.0,1.0,92,0.00,,,0.00,WUHU216DAVISVP2,2013-12-11 02:07:00,
2013-12-10 20:12:00,28.4,26.6,30.44,West,278,0.0,1.0,93,0.00,,,0.00,WUHU216DAVISVP2,2013-12-11 02:12:00,
2013-12-10 20:17:00,28.4,26.6,30.44,West,278,0.0,1.0,93,0.00,,,0.00,WUHU216DAVISVP2,2013-12-11 02:17:00,
2013-12-10 20:22:00,28.3,26.5,30.44,West,278,0.0,0.0,93,0.00,,,0.00,WUHU216DAVISVP2,2013-12-11 02:22:00,
2013-12-10 20:27:00,28.3,26.5,30.44,West,278,0.0,0.0,93,0.00,,,0.00,WUHU216DAVISVP2,2013-12-11 02:27:00,
2013-12-10 20:32:00,28.3,26.5,30.44,West,278,0.0,0.0,93,0.00,,,0.00,WUHU216DAVISVP2,2013-12-11 02:32:00,
2013-12-10 20:37:00,28.3,26.7,30.44,West,278,0.0,0.0,94,0.00,,,0.00,WUHU216DAVISVP2,2013-12-11 02:37:00,
2013-12-10 20:42:00,28.3,26.7,30.44,West,278,0.0,0.0,94,0.00,,,0.00,WUHU216DAVISVP2,2013-12-11 02:42:00,
2013-12-10 20:48:00,28.3,26.7,30.44,West,278,0.0,0.0,94,0.00,,,0.00,WUHU216DAVISVP2,2013-12-11 02:48:00,
2013-12-10 20:53:00,28.2,26.6,30.44,West,278,0.0,0.0,94,0.00,,,0.00,WUHU216DAVISVP2,2013-12-11 02:53:00,
2013-12-10 20:58:00,28.2,26.6,30.44,West,278,0.0,0.0,94,0.00,,,0.00,WUHU216DAVISVP2,2013-12-11 02:58:00,
2013-12-10 21:03:00,28.2,26.6,30.43,West,278,0.0,0.0,94,0.00,,,0.00,WUHU216DAVISVP2,2013-12-11 03:03:00,
2013-12-10 21:08:00,28.1,26.5,30.43,West,278,0.0,0.0,94,0.00,,,0.00,WUHU216DAVISVP2,2013-12-11 03:08:00,
2013-12-10 21:13:00,28.1,26.5,30.44,West,278,0.0,0.0,94,0.00,,,0.00,WUHU216DAVISVP2,2013-12-11 03:13:00,
2013-12-10 21:18:00,28.1,26.5,30.44,West,278,0.0,0.0,94,0.00,,,0.00,WUHU216DAVISVP2,2013-12-11 03:18:00,
2013-12-10 21:23:00,28.1,26.5,30.44,West,278,0.0,0.0,94,0.00,,,0.00,WUHU216DAVISVP2,2013-12-11 03:23:00,
2013-12-10 21:28:00,28.1,26.5,30.44,West,278,0.0,0.0,94,0.00,,,0.00,WUHU216DAVISVP2,2013-12-11 03:28:00,
2013-12-10 21:33:00,28.0,26.4,30.44,West,278,0.0,0.0,94,0.00,,,0.00,WUHU216DAVISVP2,2013-12-11 03:33:00,
2013-12-10 21:38:00,27.8,26.3,30.44,West,278,0.0,0.0,94,0.00,,,0.00,WUHU216DAVISVP2,2013-12-11 03:38:00,
2013-12-10 21:43:00,27.6,26.1,30.44,WNW,296,0.0,1.0,94,0.00,,,0.00,WUHU216DAVISVP2,2013-12-11 03:43:00,
2013-12-10 21:48:00,27.3,25.8,30.45,WNW,296,0.0,1.0,94,0.00,,,0.00,WUHU216DAVISVP2,2013-12-11 03:48:00,
2013-12-10 21:53:00,27.0,25.5,30.44,WNW,296,0.0,1.0,94,0.00,,,0.00,WUHU216DAVISVP2,2013-12-11 03:53:00,
2013-12-10 21:58:00,26.8,25.3,30.44,WNW,297,0.0,1.0,94,0.00,,,0.00,WUHU216DAVISVP2,2013-12-11 03:58:00,
2013-12-10 22:03:00,26.7,25.2,30.44,WNW,297,0.0,1.0,94,0.00,,,0.00,WUHU216DAVISVP2,2013-12-11 04:03:00,
2013-12-10 22:08:00,26.7,25.2,30.44,WNW,297,0.0,0.0,94,0.00,,,0.00,WUHU216DAVISVP2,2013-12-11 04:08:00,
2013-12-10 22:13:00,26.7,25.4,30.44,WNW,297,0.0,0.0,95,0.00,,,0.00,WUHU216DAVISVP2,2013-12-11 04:13:00,
2013-12-10 22:18:00,26.8,25.5,30.44,WNW,296,0.0,0.0,95,0.00,,,0.00,WUHU216DAVISVP2,2013-12-11 04:18:00,
2013-12-10 22:23:00,26.9,25.6,30.44,WNW,298,0.0,2.0,95,0.00,,,0.00,WUHU216DAVISVP2,2013-12-11 04:23:00,
2013-12-10 22:28:00,26.6,25.1,30.44,WNW,293,0.0,2.0,94,0.00,,,0.00,WUHU216DAVISVP2,2013-12-11 04:28:00,
2013-12-10 22:33:00,26.4,24.9,30.44,WNW,293,0.0,2.0,94,0.00,,,0.00,WUHU216DAVISVP2,2013-12-11 04:33:00,
2013-12-10 22:38:00,26.4,25.1,30.44,WNW,293,0.0,2.0,95,0.00,,,0.00,WUHU216DAVISVP2,2013-12-11 04:38:00,
2013-12-10 22:43:00,26.4,25.1,30.44,WNW,293,0.0,0.0,95,0.00,,,0.00,WUHU216DAVISVP2,2013-12-11 04:43:00,
2013-12-10 22:48:00,26.4,25.1,30.44,WNW,293,0.0,1.0,95,0.00,,,0.00,WUHU216DAVISVP2,2013-12-11 04:48:00,
2013-12-10 22:53:00,26.3,25.0,30.44,WNW,293,0.0,1.0,95,0.00,,,0.00,WUHU216DAVISVP2,2013-12-11 04:53:00,
2013-12-10 22:58:00,26.2,24.9,30.44,WNW,293,0.0,1.0,95,0.00,,,0.00,WUHU216DAVISVP2,2013-12-11 04:58:00,
2013-12-10 23:03:00,26.2,24.9,30.44,WNW,293,0.0,0.0,95,0.00,,,0.00,WUHU216DAVISVP2,2013-12-11 05:03:00,
2013-12-10 23:08:00,26.1,24.8,30.44,WNW,293,0.0,0.0,95,0.00,,,0.00,WUHU216DAVISVP2,2013-12-11 05:08:00,
2013-12-10 23:13:00,26.1,24.8,30.44,WNW,293,0.0,0.0,95,0.00,,,0.00,WUHU216DAVISVP2,2013-12-11 05:13:00,
2013-12-10 23:18:00,26.2,24.9,30.44,WNW,293,0.0,0.0,95,0.00,,,0.00,WUHU216DAVISVP2,2013-12-11 05:18:00,
2013-12-10 23:23:00,26.2,24.9,30.44,WNW,293,0.0,0.0,95,0.00,,,0.00,WUHU216DAVISVP2,2013-12-11 05:23:00,
2013-12-10 23:28:00,26.1,24.8,30.43,WNW,293,0.0,0.0,95,0.00,,,0.00,WUHU216DAVISVP2,2013-12-11 05:28:00,
2013-12-10 23:33:00,26.1,24.8,30.43,WNW,293,0.0,0.0,95,0.00,,,0.00,WUHU216DAVISVP2,2013-12-11 05:33:00,
2013-12-10 23:38:00,26.1,24.9,30.43,WNW,293,0.0,0.0,95,0.00,,,0.00,WUHU216DAVISVP2,2013-12-11 05:38:00,
2013-12-10 23:43:00,25.9,24.7,30.43,WNW,293,0.0,0.0,95,0.00,,,0.00,WUHU216DAVISVP2,2013-12-11 05:43:00,
2013-12-10 23:48:00,25.8,24.6,30.43,WNW,293,0.0,0.0,95,0.00,,,0.00,WUHU216DAVISVP2,2013-12-11 05:48:00,
2013-12-10 23:53:00,25.7,24.4,30.43,WNW,293,0.0,0.0,95,0.00,,,0.00,WUHU216DAVISVP2,2013-12-11 05:53:00,
2013-12-10 23:58:00,25.6,24.3,30.43,WNW,293,0.0,0.0,95,0.00,,,0.00,WUHU216DAVISVP2,2013-12-11 05:58:00,